Regional Weather Roundup
Issued by NWS Newport/Morehead, NC

Current Version | Previous Version | Graphics & Text | Print | Product List | Glossary On
Versions: 1 2 3 4 5 6 7 8 9 10 11 12 13 14 15 16 17 18 19 20 21 22 23 24 25 26 27 28 29 30 31 32 33 34 35 36 37 38 39 40 41 42 43 44 45 46 47 48 49 50
000 ASUS42 KMHX 171822 RWRMHX WEATHER ROUNDUP FOR EASTERN NORTH CAROLINA NATIONAL WEATHER SERVICE NEWPORT/MOREHEAD CITY NC 200 PM EDT WED SEP 17 2014 NOTE: "FAIR" INDICATES FEW OR NO CLOUDS BELOW 12,000 FEET WITH NO SIGNIFICANT WEATHER AND/OR OBSTRUCTIONS TO VISIBILITY NCZ015>017-031-032-045>047-102-103-171900- NORTH COAST CITY SKY/WX TMP DP RH WIND PRES REMARKS EDENTON NOT AVBL ELIZABETH CITY CLOUDY 73 62 68 NE14 29.97F KITTY HAWK CLOUDY 76 61 60 NE8 29.94S MANTEO NOT AVBL $$ NCZ045>047-081-094-103-104-171900- CENTRAL COAST CITY SKY/WX TMP DP RH WIND PRES REMARKS FRISCO MOSUNNY 74 68 81 NE14G21 29.92F SWANQUARTER N/A 77 N/A N/A NE9G16 29.88S $$ NCZ095-097-098-100-101-171900- SOUTHERN COAST CITY SKY/WX TMP DP RH WIND PRES REMARKS BEAUFORT CLOUDY 78 71 79 E10G21 29.91F CEDAR ISLAND N/A 75 N/A N/A NE7G16 29.97S JACKSONVILLE MOSUNNY 82 68 62 E10 29.89F NEWPORT NOT AVBL PINEY ISLAND LGT RAIN 75 71 87 E13 29.91F FOG WILMINGTON MOSUNNY 81 69 67 VRB7 29.89F $$ NCZ011>013-027>030-043-044-078>080-089-090>093-098-171900- COASTAL PLAIN CITY SKY/WX TMP DP RH WIND PRES REMARKS AHOSKIE MOSUNNY 72 63 73 NE5 29.97F CLINTON PTSUNNY 80 70 73 NE5 29.92F ELIZABETHTOWN PTSUNNY 78 68 71 CALM 29.91F GOLDSBORO MOSUNNY 79 71 78 E2 29.91F GREENVILLE PTSUNNY 73 66 78 NE10 29.96F HAVELOCK MOSUNNY 78 68 71 E14G22 29.92F KENANSVILLE NOT AVBL KINSTON PTSUNNY 81 64 57 E9G16 29.93F NEW BERN CLOUDY 79 66 64 NE8 29.93F RICHLANDS PTSUNNY 75 66 73 NE10 29.91S ROANOKE RAPIDS NOT AVBL ROCKY MOUNT PTSUNNY 78 65 63 NE10 29.95F WASHINGTON SUNNY 77 65 65 NE8 29.93F WHITEVILLE MOSUNNY 78 68 69 CALM 29.90F $$ AMZ130-135-150-152-154-156-158-170-250-252-270-ANZ085-086-088-633-658-670-171900- MARINE OBSERVATIONS STATION/POSITION TIME TEMP WIND PRES WAVE SWELL AIR SEA DIR/SP/G HT/PER HT/PER (UTC) (F) (DEG/KT/KT) (MB) (FT/S) (FT/S) CHESAPEAKE LIGHT 1800 70 60/ 16/ 17 1015.7 BUOY 44014 1800 73 77 30/ 12/ 16 1014.2 5/14 5/14 DUCK 1800 73 76 40/ 16/ 18 1013.5 2E DUCK 1800 N/A 5/14 3/14 OREGON INLET 1800 75 76 40/ 12/ 18 1013.5 BUOY 44095 1800 76 N/A 5/14 3/14 20E OREGON INLET NOT AVBL HATTERAS CG 1800 74 79 40/ 11/ 16 1013.5 DIAMOND BUOY 1800 78 50/ 12/ 16 1012.6 5/13 5/13 CAPE LOOKOUT 1800 72 100/ 14/ 16 1012.7 BEAUFORT LAB 1800 76 80 90/ 8/ 15 1012.3 30 SE NEW RIVER 1800 80 82 40/ 2/ 8 1012.6 4/14 3/14 5 SE WRIGHTSVILL 1800 76 82 80/ 8/ 10 N/A BUOY 41002 1655 76 82 180/ 4/ 6 1011.2 7/14 7/14 BUOY 41004 1800 79 83 40/ 8/ 10 1012.0 3/15 3/15 $$

USA.gov is the U.S. government's official web portal to all federal, state and local government web resources and services.